Cando, ND

12:50 PM CDT on September 27, 2016 (GMT -0500)
Cando

Weather History for K9D7 - January, 2014

Change the Weather History Date:

Thursday, January 30, 2014

  Actual Average (KDVL) Record (KDVL)
Temperature  
Mean Temperature -5 °F -  
Max Temperature 1 °F 17 °F 43 °F (1992)
Min Temperature -11 °F -2 °F -34 °F (1950)
Degree Days  
Heating Degree Days 70    
Moisture  
Dew Point -10 °F    
Average Humidity 74    
Maximum Humidity 85    
Minimum Humidity 65    
Precipitation  
Precipitation 0.00 in - - ()
Sea Level Pressure  
Sea Level Pressure 29.81 in    
Wind  
Wind Speed 15 mph (NW)    
Max Wind Speed 23 mph    
Max Gust Speed 26 mph    
Visibility 10 miles    
Events      
Averages and records for this station are not official NWS values.
T = Trace of Precipitation, MM = Missing Value Source: NWS Daily Summary

Daily Weather History Graph

Daily Weather History Graph

Search for Another Location

Airport or City:

Trip Planner

Search our weather history database for the weather conditions in past years. The results will help you decide how hot, cold, wet, or windy it might be!

Date:

Astronomy

Jan. 30, 2014 Rise Set
Actual Time 8:08 AM CST 5:32 PM CST
Civil Twilight 7:34 AM CST 6:06 PM CST
Nautical Twilight 6:56 AM CST 6:44 PM CST
Astronomical Twilight 6:20 AM CST 7:21 PM CST
Moon 7:32 AM CST (1/30) 5:51 PM CST (1/30)
Length of Visible Light 10h 31m
Length of Day
9h 24m
Waning Crescent, 0% of the Moon is Illuminated
Jan 30
Waning Crescent
Jan 30
New
Feb 6
First Quarter
Feb 14
Full
Feb 22
Last Quarter

Hourly Weather History & Observations

Time (CST) Temp. Windchill Dew Point Humidity Pressure Visibility Wind Dir Wind Speed Gust Speed Precip Events Conditions
12:15 AM 1.4 °F -18.2 °F -4.0 °F 78% 29.61 in 10.0 mi North 16.1 mph - N/A   Overcast
12:35 AM -0.4 °F -19.2 °F -4.0 °F 85% 29.63 in 10.0 mi North 13.8 mph - N/A   Overcast
12:55 AM -0.4 °F -19.2 °F -4.0 °F 85% 29.63 in 10.0 mi North 13.8 mph - N/A   Overcast
1:15 AM -0.4 °F -18.4 °F -4.0 °F 85% 29.63 in 10.0 mi North 12.7 mph - N/A   Overcast
1:35 AM -0.4 °F -19.2 °F -4.0 °F 85% 29.63 in 10.0 mi North 13.8 mph - N/A   Overcast
1:55 AM -0.4 °F -19.2 °F -4.0 °F 85% 29.64 in 10.0 mi North 13.8 mph - N/A   Overcast
2:15 AM -0.4 °F -19.9 °F -4.0 °F 85% 29.64 in 10.0 mi North 15.0 mph - N/A   Overcast
2:35 AM -0.4 °F -17.6 °F -4.0 °F 85% 29.65 in 10.0 mi North 11.5 mph - N/A   Overcast
2:55 AM -0.4 °F -18.4 °F -5.8 °F 78% 29.66 in 10.0 mi North 12.7 mph - N/A   Overcast
3:15 AM -0.4 °F -17.6 °F -5.8 °F 78% 29.67 in 10.0 mi North 11.5 mph - N/A   Overcast
3:35 AM -0.4 °F -19.2 °F -5.8 °F 78% 29.68 in 10.0 mi NNW 13.8 mph - N/A   Overcast
3:55 AM -0.4 °F -17.6 °F -5.8 °F 78% 29.68 in 10.0 mi NNW 11.5 mph - N/A   Mostly Cloudy
4:15 AM -0.4 °F -21.2 °F -7.6 °F 72% 29.69 in 10.0 mi NNW 17.3 mph - N/A   Overcast
4:35 AM -2.2 °F -19.9 °F -7.6 °F 78% 29.70 in 10.0 mi NNW 11.5 mph - N/A   Overcast
4:55 AM -2.2 °F -19.9 °F -7.6 °F 78% 29.70 in 10.0 mi NNW 11.5 mph - N/A   Overcast
5:15 AM -2.2 °F -20.7 °F -7.6 °F 78% 29.71 in 10.0 mi NNW 12.7 mph - N/A   Overcast
5:35 AM -2.2 °F -19.9 °F -9.4 °F 71% 29.72 in 10.0 mi NNW 11.5 mph - N/A   Overcast
5:55 AM -4.0 °F -23.0 °F -9.4 °F 78% 29.72 in 10.0 mi NNW 12.7 mph - N/A   Overcast
6:15 AM -4.0 °F -24.5 °F -9.4 °F 78% 29.73 in 10.0 mi NNW 15.0 mph - N/A   Overcast
6:35 AM -4.0 °F -21.2 °F -9.4 °F 78% 29.74 in 10.0 mi NNW 10.4 mph - N/A   Overcast
6:55 AM -4.0 °F -22.1 °F -11.2 °F 71% 29.75 in 10.0 mi NNW 11.5 mph - N/A   Overcast
7:15 AM -4.0 °F -24.5 °F -11.2 °F 71% 29.76 in 10.0 mi NNW 15.0 mph - N/A   Mostly Cloudy
7:35 AM -4.0 °F -25.2 °F -11.2 °F 71% 29.77 in 10.0 mi NNW 16.1 mph - N/A   Mostly Cloudy
7:55 AM -4.0 °F -23.7 °F -9.4 °F 78% 29.79 in 10.0 mi NNW 13.8 mph - N/A   Overcast
8:15 AM -4.0 °F -25.8 °F -9.4 °F 78% 29.79 in 10.0 mi NNW 17.3 mph - N/A   Overcast
8:35 AM -4.0 °F -23.7 °F -9.4 °F 78% 29.80 in 10.0 mi NNW 13.8 mph - N/A   Overcast
8:55 AM -2.2 °F -24.1 °F -9.4 °F 71% 29.81 in 10.0 mi NNW 18.4 mph 23.0 mph N/A   Overcast
9:15 AM -2.2 °F -24.7 °F -9.4 °F 71% 29.82 in 10.0 mi NW 19.6 mph - N/A   Overcast
9:35 AM -4.0 °F -27.0 °F -9.4 °F 78% 29.82 in 9.0 mi NNW 19.6 mph - N/A   Overcast
9:55 AM -4.0 °F -28.6 °F -9.4 °F 78% 29.83 in 8.0 mi NW 23.0 mph 26.5 mph N/A   Mostly Cloudy
10:15 AM -4.0 °F -26.4 °F -11.2 °F 71% 29.84 in 10.0 mi NNW 18.4 mph - N/A   Mostly Cloudy
10:35 AM -2.2 °F -24.1 °F -11.2 °F 66% 29.85 in 10.0 mi NNW 18.4 mph - N/A   Mostly Cloudy
10:55 AM -2.2 °F -24.7 °F -9.4 °F 71% 29.86 in 7.0 mi NNW 19.6 mph - N/A   Mostly Cloudy
11:15 AM -2.2 °F -24.1 °F -9.4 °F 71% 29.87 in 7.0 mi NNW 18.4 mph - N/A   Mostly Cloudy
11:35 AM -2.2 °F -24.1 °F -9.4 °F 71% 29.88 in 4.0 mi NNW 18.4 mph - N/A   Haze
11:55 AM -2.2 °F -22.2 °F -9.4 °F 71% 29.87 in 2.0 mi NW 15.0 mph - N/A   Haze
12:15 PM -2.2 °F -20.7 °F -9.4 °F 71% 29.88 in 10.0 mi WNW 12.7 mph - N/A   Scattered Clouds
12:35 PM -2.2 °F -21.5 °F -9.4 °F 71% 29.87 in 3.0 mi NNW 13.8 mph - N/A   Haze
12:55 PM -2.2 °F -20.7 °F -9.4 °F 71% 29.87 in 5.0 mi NNW 12.7 mph - N/A   Haze
1:15 PM -2.2 °F -20.7 °F -9.4 °F 71% 29.87 in 7.0 mi WNW 12.7 mph - N/A   Overcast
1:35 PM -2.2 °F -19.9 °F -11.2 °F 66% 29.87 in 9.0 mi WNW 11.5 mph - N/A   Overcast
1:55 PM -2.2 °F -21.5 °F -11.2 °F 66% 29.87 in 10.0 mi WNW 13.8 mph - N/A   Overcast
2:15 PM -2.2 °F -23.5 °F -11.2 °F 66% 29.86 in 10.0 mi WNW 17.3 mph - N/A   Overcast
2:35 PM -2.2 °F -24.1 °F -11.2 °F 66% 29.86 in 10.0 mi WNW 18.4 mph 23.0 mph N/A   Overcast
2:55 PM -2.2 °F -22.9 °F -11.2 °F 66% 29.87 in 10.0 mi NW 16.1 mph - N/A   Overcast
3:15 PM -2.2 °F -24.7 °F -9.4 °F 71% 29.87 in 10.0 mi WNW 19.6 mph - N/A   Overcast
3:35 PM -2.2 °F -25.2 °F -11.2 °F 66% 29.87 in 10.0 mi WNW 20.7 mph - N/A   Mostly Cloudy
3:55 PM -2.2 °F -25.2 °F -11.2 °F 66% 29.88 in 10.0 mi West 20.7 mph 25.3 mph N/A   Mostly Cloudy
4:15 PM -2.2 °F -24.1 °F -11.2 °F 66% 29.87 in 10.0 mi WNW 18.4 mph - N/A   Scattered Clouds
4:35 PM -2.2 °F -24.7 °F - N/A% 29.87 in 10.0 mi WNW 19.6 mph - N/A   Partly Cloudy
4:55 PM -4.0 °F -24.5 °F -11.2 °F 71% 29.88 in 10.0 mi WNW 15.0 mph - N/A   Clear
5:15 PM -4.0 °F -23.7 °F -13.0 °F 65% 29.88 in 10.0 mi WNW 13.8 mph - N/A   Clear
5:35 PM -4.0 °F -24.5 °F -13.0 °F 65% 29.88 in 10.0 mi WNW 15.0 mph - N/A   Clear
5:55 PM -5.8 °F -26.8 °F -13.0 °F 71% 29.89 in 10.0 mi WNW 15.0 mph - N/A   Clear
6:15 PM -5.8 °F -28.2 °F -13.0 °F 71% 29.89 in 10.0 mi WNW 17.3 mph - N/A   Clear
6:35 PM -7.6 °F -29.1 °F -13.0 °F 77% 29.89 in 10.0 mi WNW 15.0 mph - N/A   Scattered Clouds
6:55 PM -7.6 °F -26.6 °F -13.0 °F 77% 29.89 in 10.0 mi WNW 11.5 mph - N/A   Scattered Clouds
7:15 PM -7.6 °F -26.6 °F -13.0 °F 77% 29.90 in 10.0 mi West 11.5 mph - N/A   Clear
7:35 PM -9.4 °F -25.6 °F -14.8 °F 77% 29.90 in 10.0 mi West 8.1 mph - N/A   Clear
7:55 PM -9.4 °F -29.8 °F -14.8 °F 77% 29.90 in 10.0 mi WNW 12.7 mph - N/A   Clear
8:15 PM -7.6 °F -29.1 °F -13.0 °F 77% 29.90 in 10.0 mi West 15.0 mph - N/A   Partly Cloudy
8:35 PM -9.4 °F -31.4 °F -14.8 °F 77% 29.90 in 10.0 mi West 15.0 mph - N/A   Clear
8:55 PM -9.4 °F -31.4 °F -14.8 °F 77% 29.90 in 10.0 mi West 15.0 mph - N/A   Partly Cloudy
9:15 PM -9.4 °F -32.8 °F -14.8 °F 77% 29.90 in 10.0 mi WNW 17.3 mph - N/A   Clear
9:35 PM -9.4 °F -32.1 °F -16.6 °F 71% 29.91 in 10.0 mi West 16.1 mph - N/A   Clear
9:55 PM -9.4 °F -32.1 °F -16.6 °F 71% 29.91 in 10.0 mi West 16.1 mph - N/A   Clear
10:15 PM -9.4 °F -33.5 °F -16.6 °F 71% 29.91 in 10.0 mi WNW 18.4 mph - N/A   Clear
10:35 PM -9.4 °F -32.8 °F -16.6 °F 71% 29.91 in 10.0 mi West 17.3 mph - N/A   Clear
10:55 PM -11.2 °F -32.1 °F -16.6 °F 77% 29.92 in 10.0 mi West 12.7 mph - N/A   Clear
11:15 PM -11.2 °F -33.7 °F -16.6 °F 77% 29.90 in 10.0 mi WNW 15.0 mph - N/A   Clear
11:35 PM -11.2 °F -34.4 °F -16.6 °F 77% 29.90 in 10.0 mi WNW 16.1 mph - N/A   Clear
11:55 PM -11.2 °F -32.9 °F -18.4 °F 70% 29.90 in 10.0 mi West 13.8 mph - N/A   Clear